• In Hungary
  • List of Countries
  • For 7 days
  • Water Temperature
  • Satellite Maps
  • Weather Map
  • News
  • Weather Widgets
  • user-avatar
    Login

    Hourly Weather Fedorovka

    Today, 19 June, Tuesday

    Time Temperature Precipitation Wind Pressure Humidity
    00:00 +14°C° 0 mm 2 mps 730 mmHg 91%
    01:00 +13°C° 0 mm 2 mps 730 mmHg 91%
    02:00 +13°C° 0 mm 2 mps 730 mmHg 91%
    03:00 +13°C° 0 mm 2 mps 730 mmHg 91%
    04:00 +12°C° 0 mm 1 mps 729 mmHg 91%
    05:00 +14°C° 0 mm 2 mps 730 mmHg 87%
    06:00 +15°C° 0 mm 2 mps 730 mmHg 83%
    07:00 +17°C° 0 mm 2 mps 730 mmHg 80%
    08:00 +19°C° 0 mm 3 mps 730 mmHg 73%
    09:00 +21°C° 0 mm 3 mps 730 mmHg 67%
    10:00 +22°C° 0 mm 4 mps 730 mmHg 61%
    11:00 +23°C° 0.1 mm 4 mps 730 mmHg 59%
    12:00 +25°C° 0.1 mm 4 mps 730 mmHg 56%
    13:00 +25°C° 0.1 mm 4 mps 730 mmHg 53%
    14:00 +25°C° 0.4 mm 4 mps 730 mmHg 55%
    15:00 +25°C° 0.4 mm 4 mps 730 mmHg 57%
    16:00 +25°C° 0.4 mm 4 mps 730 mmHg 58%
    17:00 +23°C° 0.4 mm 4 mps 730 mmHg 63%
    18:00 +22°C° 0.4 mm 3 mps 730 mmHg 68%
    19:00 +23°C° 0.4 mm 2 mps 730 mmHg 73%
    20:00 +20°C° 0 mm 2 mps 730 mmHg 76%
    21:00 +18°C° 0 mm 2 mps 730 mmHg 79%
    22:00 +16°C° 0 mm 2 mps 730 mmHg 82%
    23:00 +16°C° 0 mm 2 mps 730 mmHg 83%

    Tomorrow, 20 June, Wednesday

    Time Temperature Precipitation Wind Pressure Humidity
    00:00 +16°C° 0 mm 2 mps 730 mmHg 84%
    01:00 +15°C° 0 mm 2 mps 730 mmHg 86%
    02:00 +15°C° 0 mm 2 mps 730 mmHg 87%
    03:00 +14°C° 0 mm 2 mps 730 mmHg 87%
    04:00 +14°C° 0 mm 2 mps 730 mmHg 88%
    05:00 +14°C° 0 mm 3 mps 730 mmHg 86%
    06:00 +17°C° 0 mm 3 mps 730 mmHg 83%
    07:00 +18°C° 0 mm 3 mps 730 mmHg 81%
    08:00 +20°C° 0.2 mm 4 mps 730 mmHg 74%
    09:00 +21°C° 0.2 mm 4 mps 730 mmHg 68%
    10:00 +23°C° 0.2 mm 5 mps 730 mmHg 62%
    11:00 +24°C° 0.2 mm 6 mps 730 mmHg 60%
    12:00 +24°C° 0.2 mm 6 mps 729 mmHg 58%
    13:00 +26°C° 0.2 mm 7 mps 729 mmHg 56%
    14:00 +26°C° 0.3 mm 7 mps 729 mmHg 59%
    15:00 +24°C° 0.3 mm 7 mps 728 mmHg 61%
    16:00 +24°C° 0.3 mm 7 mps 728 mmHg 64%
    17:00 +23°C° 0.4 mm 6 mps 728 mmHg 68%
    18:00 +22°C° 0.4 mm 6 mps 727 mmHg 72%
    19:00 +21°C° 0.4 mm 6 mps 727 mmHg 75%
    20:00 +20°C° 1.3 mm 6 mps 727 mmHg 80%
    21:00 +19°C° 1.3 mm 6 mps 727 mmHg 85%
    22:00 +17°C° 1.3 mm 6 mps 727 mmHg 89%
    23:00 +16°C° 0.1 mm 5 mps 727 mmHg 91%

    Day after tomorrow, 21 June, Thursday

    Time Temperature Precipitation Wind Pressure Humidity
    00:00 +15°C° 0.1 mm 4 mps 727 mmHg 92%
    01:00 +13°C° 0.1 mm 3 mps 727 mmHg 93%
    02:00 +12°C° 0 mm 3 mps 728 mmHg 93%
    03:00 +11°C° 0 mm 3 mps 728 mmHg 92%
    04:00 +10°C° 0 mm 3 mps 728 mmHg 92%
    05:00 +11°C° 0 mm 4 mps 728 mmHg 88%
    06:00 +13°C° 0 mm 4 mps 728 mmHg 85%
    07:00 +14°C° 0 mm 5 mps 729 mmHg 81%
    08:00 +15°C° 0 mm 6 mps 729 mmHg 73%
    09:00 +16°C° 0 mm 7 mps 729 mmHg 64%
    10:00 +18°C° 0 mm 8 mps 729 mmHg 56%
    11:00 +18°C° 0 mm 8 mps 729 mmHg 56%
    12:00 +20°C° 0 mm 8 mps 728 mmHg 56%
    13:00 +19°C° 0 mm 9 mps 728 mmHg 55%
    14:00 +19°C° 0 mm 9 mps 728 mmHg 56%
    15:00 +19°C° 0 mm 9 mps 728 mmHg 57%
    16:00 +20°C° 0 mm 8 mps 728 mmHg 57%
    17:00 +18°C° 0 mm 8 mps 728 mmHg 62%
    18:00 +17°C° 0 mm 7 mps 728 mmHg 66%
    19:00 +16°C° 0 mm 6 mps 728 mmHg 70%
    20:00 +15°C° 0 mm 5 mps 728 mmHg 73%
    21:00 +14°C° 0 mm 5 mps 729 mmHg 76%
    22:00 +12°C° 0 mm 5 mps 729 mmHg 79%
    23:00 +12°C° 0 mm 5 mps 729 mmHg 80%

    22 June, Friday

    Time Temperature Precipitation Wind Pressure Humidity
    00:00 +12°C° 0 mm 5 mps 729 mmHg 80%
    01:00 +11°C° 0 mm 6 mps 729 mmHg 80%
    02:00 +10°C° 0 mm 6 mps 729 mmHg 81%
    03:00 +10°C° 0 mm 5 mps 729 mmHg 81%
    04:00 +10°C° 0 mm 5 mps 730 mmHg 82%
    05:00 +11°C° 0 mm 6 mps 730 mmHg 79%
    06:00 +13°C° 0 mm 6 mps 730 mmHg 76%
    07:00 +14°C° 0 mm 6 mps 731 mmHg 73%
    08:00 +15°C° 0 mm 6 mps 731 mmHg 67%
    09:00 +17°C° 0 mm 7 mps 731 mmHg 60%
    10:00 +18°C° 0 mm 7 mps 731 mmHg 54%
    11:00 +20°C° 0 mm 7 mps 732 mmHg 54%
    12:00 +21°C° 0 mm 7 mps 732 mmHg 53%
    13:00 +21°C° 0 mm 7 mps 732 mmHg 52%
    14:00 +21°C° 0 mm 6 mps 732 mmHg 53%
    15:00 +21°C° 0 mm 6 mps 732 mmHg 54%
    16:00 +21°C° 0 mm 6 mps 732 mmHg 55%
    17:00 +21°C° 0 mm 5 mps 732 mmHg 61%
    18:00 +20°C° 0 mm 5 mps 732 mmHg 66%
    19:00 +20°C° 0 mm 4 mps 733 mmHg 71%
    20:00 +18°C° 0 mm 3 mps 733 mmHg 76%
    21:00 +16°C° 0 mm 3 mps 733 mmHg 80%
    22:00 +15°C° 0 mm 2 mps 733 mmHg 85%
    23:00 +14°C° 0 mm 2 mps 733 mmHg 87%

    23 June, Saturday

    Time Temperature Precipitation Wind Pressure Humidity
    00:00 +14°C° 0 mm 2 mps 733 mmHg 88%
    01:00 +13°C° 0 mm 2 mps 733 mmHg 89%
    02:00 +13°C° 0 mm 2 mps 734 mmHg 90%
    03:00 +13°C° 0 mm 2 mps 734 mmHg 90%
    04:00 +13°C° 0 mm 2 mps 734 mmHg 91%
    05:00 +14°C° 0 mm 2 mps 734 mmHg 87%
    06:00 +16°C° 0 mm 2 mps 734 mmHg 83%
    07:00 +17°C° 0 mm 2 mps 735 mmHg 79%
    08:00 +19°C° 0 mm 2 mps 735 mmHg 73%
    09:00 +20°C° 0 mm 3 mps 735 mmHg 68%
    10:00 +22°C° 0 mm 3 mps 735 mmHg 62%
    11:00 +24°C° 0 mm 3 mps 735 mmHg 60%
    12:00 +25°C° 0 mm 3 mps 735 mmHg 58%
    13:00 +26°C° 0 mm 3 mps 735 mmHg 56%
    14:00 +26°C° 0 mm 3 mps 735 mmHg 57%
    15:00 +26°C° 0 mm 3 mps 734 mmHg 58%
    16:00 +26°C° 0 mm 3 mps 734 mmHg 59%
    17:00 +26°C° 0.1 mm 3 mps 734 mmHg 64%
    18:00 +26°C° 0.1 mm 2 mps 734 mmHg 69%
    19:00 +25°C° 0.1 mm 2 mps 734 mmHg 73%
    20:00 +23°C° 0 mm 2 mps 734 mmHg 78%
    21:00 +22°C° 0 mm 1 mps 734 mmHg 82%
    22:00 +20°C° 0 mm 1 mps 735 mmHg 87%
    23:00 +20°C° 0 mm 1 mps 735 mmHg 88%

    24 June, Sunday

    Time Temperature Precipitation Wind Pressure Humidity
    00:00 +19°C° 0 mm 1 mps 735 mmHg 88%
    01:00 +19°C° 0 mm 1 mps 735 mmHg 89%
    02:00 +19°C° 0 mm 1 mps 735 mmHg 89%
    03:00 +18°C° 0 mm 1 mps 735 mmHg 90%
    04:00 +18°C° 0 mm 1 mps 735 mmHg 90%
    05:00 +19°C° 0 mm 1 mps 735 mmHg 86%
    06:00 +21°C° 0 mm 1 mps 735 mmHg 82%
    07:00 +23°C° 0 mm 1 mps 736 mmHg 78%
    08:00 +24°C° 0 mm 1 mps 736 mmHg 73%
    09:00 +25°C° 0 mm 1 mps 736 mmHg 68%
    10:00 +26°C° 0 mm 1 mps 736 mmHg 63%
    11:00 +27°C° 0 mm 1 mps 736 mmHg 60%
    12:00 +28°C° 0 mm 1 mps 736 mmHg 56%
    13:00 +28°C° 0 mm 1 mps 736 mmHg 52%
    14:00 +29°C° 0 mm 1 mps 736 mmHg 51%
    15:00 +29°C° 0 mm 1 mps 736 mmHg 50%
    16:00 +29°C° 0 mm 2 mps 736 mmHg 48%
    17:00 +29°C° 0 mm 1 mps 736 mmHg 53%
    18:00 +28°C° 0 mm 1 mps 736 mmHg 58%
    19:00 +28°C° 0 mm 1 mps 736 mmHg 62%
    20:00 +26°C° 0 mm 1 mps 736 mmHg 67%
    21:00 +24°C° 0 mm 1 mps 736 mmHg 72%
    22:00 +22°C° 0 mm 1 mps 736 mmHg 76%
    23:00 +21°C° 0 mm 1 mps 736 mmHg 77%
    Show more